This demonstration page uses our WeatherBlox Daily Observations layout. Learn more.

Left ArrowRight Arrow

Hourly Observations for April 17, 2015

Temp ( °F °C ) Dew Point ( °F °C ) Humidity (%) Winds ( mph kmh ) Pressure ( in mb ) Visibility ( mi km ) Precip ( " mm )
12:53 am 00:53 Clear 37 2.8 29 -1.7 73 73 N N/A 30.14 1021 10 16 N/A
1:53 am 01:53 Clear 39 3.9 28 -2.2 65 65 S 3 6 30.15 1021 10 16 N/A
2:53 am 02:53 Clear 38 3.3 30 -1.1 73 73 W 7 11 30.16 1021 10 16 N/A
3:53 am 03:53 Clear 36 2.2 29 -1.7 76 76 WSW 9 15 30.16 1021 10 16 N/A
4:53 am 04:53 Clear 34 1.1 29 -1.7 82 82 WSW 6 9 30.18 1022 10 16 N/A
5:53 am 05:53 Clear 33 0.6 29 -1.7 85 85 WSW 8 13 30.19 1022 10 16 N/A
6:53 am 06:53 Sunny 33 0.6 29 -1.7 85 85 NW 10 17 30.22 1023 10 16 N/A
7:53 am 07:53 Sunny 40 4.4 32 undefined 73 73 N N/A 30.24 1024 10 16 N/A
8:53 am 08:53 Sunny 46 7.8 32 undefined 58 58 N N/A 30.24 1024 10 16 N/A
9:53 am 09:53 Sunny 54 12.2 30 -1.1 40 40 E 16 26 30.20 1023 10 16 N/A
10:53 am 10:53 Sunny 60 15.6 30 -1.1 32 32 ESE 18 30 30.18 1022 10 16 N/A
11:53 am 11:53 Sunny 62 16.7 30 -1.1 30 30 E 15 24 30.16 1021 10 16 N/A
12:53 pm 12:53 Sunny 65 18.3 33 0.6 31 31 ESE 8 13 30.13 1020 10 16 N/A
1:53 pm 13:53 Sunny 67 19.4 34 1.1 30 30 SW 8 13 30.09 1019 10 16 N/A
2:53 pm 14:53 Sunny 70 21.1 31 -0.6 23 23 SW 17 28 30.05 1018 10 16 N/A
3:53 pm 15:53 Sunny 70 21.1 30 -1.1 23 23 SW 10 17 30.02 1017 10 16 N/A
4:53 pm 16:53 Sunny 70 21.1 30 -1.1 23 23 SW 15 24 29.99 1016 10 16 N/A
5:53 pm 17:53 Sunny 69 20.6 31 -0.6 24 24 SSW 12 19 29.98 1015 10 16 N/A
6:53 pm 18:53 Sunny 68 20 32 undefined 26 26 SSW 12 19 29.96 1015 10 16 N/A
7:53 pm 19:53 Sunny 60 15.6 33 0.6 36 36 SSW 8 13 29.96 1015 10 16 N/A
8:53 pm 20:53 Clear 51 10.6 34 1.1 52 52 S 12 19 29.96 1015 10 16 N/A
9:53 pm 21:53 Clear 53 11.7 33 0.6 47 47 SSE 12 19 29.93 1014 10 16 N/A
10:53 pm 22:53 Clear 54 12.2 30 -1.1 40 40 S 12 19 29.91 1013 10 16 N/A
11:53 pm 23:53 Clear 49 9.4 31 -0.6 50 50 NW 5 7 29.92 1013 10 16 N/A

Powered by AerisWeather